Weather History for KBCK - January, 2014

Change the Weather History Date:

Sunday, January 19, 2014

  Actual Average (KLSE) Record (KLSE)
Temperature  
Mean Temperature 25 °F 17 °F  
Max Temperature 37 °F 26 °F 50 °F (1947)
Min Temperature 13 °F 8 °F -32 °F (1970)
Degree Days  
Heating Degree Days 40 48  
Month to date heating degree days 908  
Since 1 July heating degree days 3752  
Cooling Degree Days 0 0  
Month to date cooling degree days 0  
Year to date cooling degree days 0  
Moisture  
Dew Point 20 °F    
Average Humidity 74    
Maximum Humidity 89    
Minimum Humidity 55    
Precipitation  
Precipitation 0.00 in 0.04 in 0.65 in (1935)
Month to date precipitation 0.67  
Year to date precipitation 0.67  
Snow  
Snow 0.00 in 0.40 in 5.80 in (1979)
Month to date snowfall 6.1  
Since 1 July snowfall 21.7  
Snow Depth -    
Sea Level Pressure  
Sea Level Pressure 29.55 in    
Wind  
Wind Speed 7 mph (WSW)    
Max Wind Speed 13 mph    
Max Gust Speed 16 mph    
Visibility 10 miles    
Events      
T = Trace of Precipitation, MM = Missing Value Source: NWS Daily Summary

Daily Weather History Graph

Daily Weather History Graph

Search for Another Location

Airport or City:

Trip Planner

Search our weather history database for the weather conditions in past years. The results will help you decide how hot, cold, wet, or windy it might be!

Date:

Astronomy

Jan. 19, 2014 Rise Set
Actual Time 7:33 AM CST 4:55 PM CST
Civil Twilight 7:01 AM CST 5:27 PM CST
Nautical Twilight 6:25 AM CST 6:03 PM CST
Astronomical Twilight 5:51 AM CST 6:37 PM CST
Moon 8:43 PM CST (1/19) 8:54 AM CST (1/19)
Length of Visible Light 10h 26m
Length of Day
9h 22m
Waning Gibbous, 89% of the Moon is Illuminated
Jan 19
Waning Gibbous
Jan 23
Last Quarter
Jan 30
New
Feb 6
First Quarter
Feb 14
Full

Hourly Weather History & Observations

Time (CST) Temp. Windchill Dew Point Humidity Pressure Visibility Wind Dir Wind Speed Gust Speed Precip Events Conditions
12:15 AM 13.1 °F 4.0 °F 10.4 °F 89% 29.73 in 10.0 mi South 5.8 mph - N/A   Mostly Cloudy
12:35 AM 13.8 °F 4.9 °F 10.9 °F 88% 29.73 in 10.0 mi SSW 5.8 mph - N/A   Overcast
12:55 AM 13.8 °F 4.9 °F 10.9 °F 88% 29.72 in 10.0 mi SSW 5.8 mph - N/A   Mostly Cloudy
1:15 AM 14.5 °F 5.7 °F 11.3 °F 87% 29.71 in 10.0 mi SSW 5.8 mph - N/A   Overcast
1:35 AM 14.9 °F 5.0 °F 11.8 °F 88% 29.70 in 10.0 mi SSW 6.9 mph - N/A   Overcast
1:55 AM 15.4 °F 6.8 °F 11.8 °F 86% 29.70 in 10.0 mi SSW 5.8 mph - N/A   Mostly Cloudy
2:15 AM 15.8 °F 7.2 °F 12.0 °F 85% 29.68 in 10.0 mi SSW 5.8 mph - N/A   Scattered Clouds
2:35 AM 16.3 °F 7.8 °F 12.2 °F 84% 29.67 in 10.0 mi SSW 5.8 mph - N/A   Mostly Cloudy
2:55 AM 16.7 °F 8.3 °F 12.6 °F 84% 29.66 in 10.0 mi SSW 5.8 mph - N/A   Scattered Clouds
3:15 AM 17.4 °F 7.1 °F 12.7 °F 82% 29.66 in 10.0 mi SW 8.1 mph - N/A   Scattered Clouds
3:35 AM 18.3 °F 9.1 °F 13.1 °F 80% 29.64 in 10.0 mi SW 6.9 mph - N/A   Overcast
3:55 AM 18.5 °F 9.3 °F 13.5 °F 81% 29.62 in 10.0 mi SW 6.9 mph - N/A   Mostly Cloudy
4:15 AM 18.7 °F 8.6 °F 13.6 °F 81% 29.61 in 10.0 mi SW 8.1 mph - N/A   Scattered Clouds
4:35 AM 18.5 °F 8.4 °F 13.6 °F 81% 29.60 in 10.0 mi SW 8.1 mph - N/A   Clear
4:55 AM 18.1 °F 8.9 °F 13.6 °F 83% 29.59 in 10.0 mi SW 6.9 mph - N/A   Clear
5:15 AM 18.0 °F 7.7 °F 14.0 °F 84% 29.57 in 10.0 mi SW 8.1 mph - N/A   Clear
5:35 AM 18.9 °F 10.8 °F 15.3 °F 86% 29.56 in 10.0 mi SW 5.8 mph - N/A   Clear
5:55 AM 19.0 °F 11.1 °F 15.6 °F 87% 29.55 in 10.0 mi SW 5.8 mph - N/A   Clear
6:15 AM 19.6 °F 13.0 °F 16.3 °F 87% 29.55 in 10.0 mi SW 4.6 mph - N/A   Clear
6:35 AM 20.3 °F 11.5 °F 16.9 °F 87% 29.54 in 10.0 mi SW 6.9 mph - N/A   Clear
6:55 AM 20.8 °F 13.2 °F 17.4 °F 87% 29.55 in 10.0 mi SW 5.8 mph - N/A   Clear
7:15 AM 21.2 °F 12.6 °F 17.6 °F 86% 29.54 in 10.0 mi SW 6.9 mph - N/A   Clear
7:35 AM 21.7 °F 14.3 °F 18.0 °F 85% 29.54 in 10.0 mi SW 5.8 mph - N/A   Clear
7:55 AM 21.7 °F 15.5 °F 18.0 °F 85% 29.54 in 10.0 mi SW 4.6 mph - N/A   Clear
8:15 AM 19.9 °F 12.1 °F 16.7 °F 87% 29.54 in 10.0 mi SSW 5.8 mph - N/A   Clear
8:35 AM 22.1 °F 15.9 °F 17.6 °F 83% 29.54 in 10.0 mi SSW 4.6 mph - N/A   Clear
8:55 AM 24.1 °F 17.0 °F 18.3 °F 79% 29.54 in 10.0 mi SSW 5.8 mph - N/A   Clear
9:15 AM 26.4 °F 19.8 °F 19.0 °F 74% 29.53 in 10.0 mi SW 5.8 mph - N/A   Clear
9:35 AM 28.6 °F 20.7 °F 19.4 °F 69% 29.53 in 10.0 mi SW 8.1 mph - N/A   Clear
9:55 AM 30.4 °F 23.6 °F 19.6 °F 64% 29.53 in 10.0 mi SW 6.9 mph - N/A   Clear
10:15 AM 31.8 °F 25.4 °F 20.1 °F 62% 29.54 in 10.0 mi SW 6.9 mph - N/A   Clear
10:35 AM 32.4 °F 26.0 °F 20.3 °F 61% 29.54 in 10.0 mi WSW 6.9 mph - N/A   Clear
10:55 AM 33.1 °F 26.1 °F 20.7 °F 60% 29.55 in 10.0 mi West 8.1 mph - N/A   Clear
11:15 AM 32.9 °F 25.9 °F 21.0 °F 62% 29.54 in 10.0 mi SW 8.1 mph - N/A   Clear
11:35 AM 32.9 °F 25.3 °F 21.0 °F 62% 29.54 in 10.0 mi West 9.2 mph - N/A   Clear
11:55 AM 33.6 °F 26.2 °F 21.4 °F 61% 29.53 in 10.0 mi WSW 9.2 mph 16.1 mph N/A   Clear
12:15 PM 34.0 °F 26.0 °F 21.2 °F 60% 29.51 in 10.0 mi West 10.4 mph 16.1 mph N/A   Clear
12:35 PM 35.1 °F 28.6 °F 21.9 °F 59% 29.50 in 10.0 mi West 8.1 mph - N/A   Clear
12:55 PM 35.8 °F 30.1 °F 22.1 °F 58% 29.47 in 10.0 mi WSW 6.9 mph - N/A   Clear
1:15 PM 36.7 °F 31.2 °F 22.5 °F 56% 29.45 in 10.0 mi WSW 6.9 mph - N/A   Clear
1:35 PM 37.0 °F 31.0 °F 22.5 °F 56% 29.44 in 10.0 mi SSW 8.1 mph - N/A   Clear
1:55 PM 37.0 °F 29.3 °F 22.3 °F 55% 29.43 in 10.0 mi WSW 11.5 mph - N/A   Clear
2:15 PM 36.7 °F 29.9 °F 22.6 °F 57% 29.43 in 10.0 mi WSW 9.2 mph - N/A   Clear
2:35 PM 37.4 °F 30.3 °F 23.0 °F 56% 29.43 in 10.0 mi WSW 10.4 mph - N/A   Clear
2:55 PM 36.7 °F 31.2 °F 23.0 °F 58% 29.44 in 10.0 mi SW 6.9 mph - N/A   Clear
3:15 PM 36.9 °F 31.4 °F 23.4 °F 58% 29.45 in 10.0 mi WSW 6.9 mph - N/A   Clear
3:35 PM 36.9 °F 31.4 °F 23.4 °F 58% 29.45 in 10.0 mi West 6.9 mph - N/A   Clear
3:55 PM 37.2 °F 33.6 °F 23.9 °F 59% 29.44 in 10.0 mi SW 4.6 mph - N/A   Clear
4:15 PM 36.7 °F 34.1 °F 23.9 °F 60% 29.43 in 10.0 mi SW 3.5 mph - N/A   Clear
4:35 PM 36.0 °F 29.0 °F 24.3 °F 63% 29.45 in 10.0 mi West 9.2 mph - N/A   Clear
4:55 PM 35.1 °F 29.3 °F 24.3 °F 65% 29.46 in 10.0 mi WSW 6.9 mph - N/A   Clear
5:15 PM 34.0 °F 28.0 °F 23.9 °F 67% 29.47 in 10.0 mi West 6.9 mph - N/A   Clear
5:35 PM 34.5 °F 29.4 °F 24.3 °F 66% 29.47 in 10.0 mi WSW 5.8 mph - N/A   Mostly Cloudy
5:55 PM 34.3 °F 30.2 °F 24.6 °F 68% 29.47 in 10.0 mi WSW 4.6 mph - N/A   Overcast
6:15 PM 34.3 °F 30.2 °F 24.8 °F 68% 29.48 in 10.0 mi WSW 4.6 mph - N/A   Overcast
6:35 PM 33.8 °F 30.8 °F 25.2 °F 71% 29.48 in 10.0 mi WSW 3.5 mph - N/A   Overcast
6:55 PM 33.8 °F 29.6 °F 25.2 °F 71% 29.49 in 10.0 mi West 4.6 mph - N/A   Overcast
7:15 PM 32.5 °F 29.3 °F 26.1 °F 77% 29.49 in 10.0 mi WNW 3.5 mph - N/A   Overcast
7:35 PM 32.2 °F 28.9 °F 26.1 °F 78% 29.50 in 10.0 mi West 3.5 mph - N/A   Overcast
7:55 PM 32.5 °F 27.1 °F 26.2 °F 78% 29.51 in 10.0 mi West 5.8 mph - N/A   Overcast
8:15 PM 33.8 °F 29.6 °F 26.2 °F 74% 29.52 in 10.0 mi WNW 4.6 mph - N/A   Overcast
8:35 PM 34.0 °F 27.2 °F 26.2 °F 73% 29.53 in 10.0 mi NW 8.1 mph - N/A   Overcast
8:55 PM 34.2 °F 25.7 °F 26.8 °F 74% 29.55 in 10.0 mi North 11.5 mph 16.1 mph N/A   Overcast
9:15 PM 33.3 °F 25.7 °F 27.1 °F 78% 29.56 in 10.0 mi NW 9.2 mph - N/A   Overcast
9:35 PM 32.9 °F 23.7 °F 26.6 °F 78% 29.58 in 10.0 mi NNW 12.7 mph 16.1 mph N/A   Overcast
9:55 PM 32.4 °F 25.3 °F 26.1 °F 78% 29.59 in 10.0 mi NNW 8.1 mph - N/A   Overcast
10:15 PM 32.2 °F 25.8 °F 26.1 °F 78% 29.60 in 10.0 mi NW 6.9 mph - N/A   Overcast
10:35 PM 32.0 °F 24.2 °F 25.9 °F 78% 29.61 in 10.0 mi NW 9.2 mph - N/A   Overcast
10:55 PM 31.8 °F 25.4 °F 25.7 °F 78% 29.61 in 10.0 mi NW 6.9 mph - N/A   Overcast
11:15 PM 32.0 °F 24.8 °F 25.7 °F 78% 29.63 in 10.0 mi NW 8.1 mph - N/A   Overcast
11:35 PM 31.8 °F 27.3 °F 25.7 °F 78% 29.64 in 10.0 mi NW 4.6 mph - N/A   Overcast
11:55 PM 31.8 °F 24.6 °F 25.7 °F 78% 29.65 in 10.0 mi NW 8.1 mph - N/A   Overcast